Regional Weather Roundup
Issued by NWS

Home | Current Version | Previous Version | Graphics & Text | Print | Product List | Glossary On
Versions: 1 2 3 4 5 6 7 8 9 10 11 12 13 14 15 16 17 18 19 20 21 22 23 24 25 26 27 28 29 30 31 32 33 34 35 36 37 38 39 40 41 42 43 44 45 46 47 48 49 50
000
ASUS43 KMKX 230859
RWRWI

WISCONSIN REGIONAL WEATHER ROUNDUP
NATIONAL WEATHER SERVICE MILWAUKEE/SULLIVAN WI
300 AM CST MON JAN 23 2017

NOTE: "FAIR" INDICATES FEW OR NO CLOUDS BELOW 12,000 FEET WITH NO
SIGNIFICANT WEATHER AND/OR OBSTRUCTIONS TO VISIBILITY.

WIZ001-002-006>008-014>016-023>028-231000-
NORTHWEST WISCONSIN

CITY           SKY/WX    TMP DP  RH WIND       PRES   REMARKS
SUPERIOR ARPT  CLOUDY    35  35 100 SW5       29.77R WCI  31
ASHLAND        CLOUDY    35  34  96 SW6       29.77R WCI  30
HAYWARD        FOG       34  33  96 CALM      29.76R VSB 1/4
SIREN          FOG       35  35 100 CALM      29.78S VSB 3/4
CUMBERLAND     FOG       32  32 100 W3        29.77R VSB 1/4
RICE LAKE      DRZL/FOG  34  34 100 CALM      29.79R VSB 1/4
CHETEK         FOG       34  34 100 CALM      29.78R VSB 1
LADYSMITH      FOG       35  34  98 CALM      29.78R VSB 1/2
EAU CLAIRE     FOG       34  34 100 W5        29.78R VSB 3/4 WCI  30
MENOMONIE        N/A    N/A N/A N/A MISG        N/A
NEW RICHMOND   CLOUDY    33  33 100 W8        29.80R FOG     WCI  26
OSCEOLA        CLOUDY    34  34 100 W6        29.83R FOG     WCI  29
$$

WIZ003>005-009-010-017-018-231000-
NORTH CENTRAL WISCONSIN

CITY           SKY/WX    TMP DP  RH WIND       PRES   REMARKS
MANITOWISH WTR CLOUDY    32  32 100 CALM      29.73R FOG
ARBOR VITAE    CLOUDY    34  33  96 CALM      29.73R FOG
WOODRUFF       CLOUDY    34  33  96 CALM      29.73R FOG
RHINELANDER    CLOUDY    34  33  96 W3        29.73S
EAGLE RIVER    FOG       32  32 100 CALM      29.72R VSB 1
LAND O LAKES   FOG       33  33 100 CALM      29.74R VSB 1
PHILLIPS       DRIZZLE   32  32 100 CALM      29.74S
TOMAHAWK       CLOUDY    32  32  99 CALM      29.74R
MEDFORD        FOG       32  32 100 CALM      29.74S VSB 1/2
MERRILL        CLOUDY    34  34 100 CALM        N/A
$$

WIZ029-030-035-036-043>047-231000-
CENTRAL WISCONSIN

CITY           SKY/WX    TMP DP  RH WIND       PRES   REMARKS
WAUSAU         CLOUDY    34  33  96 NW6       29.72S WCI  29
MOSINEE        CLOUDY    32  32 100 NW6       29.74S WCI  26
MARSHFIELD     CLOUDY    34  32  92 NW7       29.73S WCI  28
STEVENS POINT  CLOUDY    33  33 100 CALM      29.74S
WAUPACA        CLOUDY    37  36  95 CALM      29.74S FOG
WAUTOMA        CLOUDY    35  34  96 NW6       29.75S FOG     WCI  30
WISC RAPIDS    CLOUDY    34  34 100 NW5       29.76S FOG     WCI  30
CAMP DOUGLAS   CLOUDY    36  34  93 W8        29.76S WCI  29
$$

WIZ011>013-019>022-031-037>040-048>050-231000-
NORTHEAST WISCONSIN

CITY           SKY/WX    TMP DP  RH WIND       PRES   REMARKS
ANTIGO         CLOUDY    33  33 100 NW3       29.72S FOG
SHAWANO        CLOUDY    38  36  94 CALM      29.74S
OCONTO         CLOUDY    36  36 100 CALM      29.73S
STURGEON BAY   FOG       35  34  96 NW3       29.72F VSB 1/2
GREEN BAY      FOG       37  37 100 NW5       29.73S VSB 1   WCI  33
MANITOWOC      FOG       36  36 100 CALM      29.72F VSB 3/4
APPLETON       FOG       36  36 100 NW6       29.71S VSB 1   WCI  31
CLINTONVILLE   CLOUDY    36  34  93 NW3       29.73S
OSHKOSH        CLOUDY    35  34  96 W7        29.73R FOG     WCI  29
$$

WIZ032>034-041-042-053>061-231000-
SOUTHWEST WISCONSIN

CITY           SKY/WX    TMP DP  RH WIND       PRES   REMARKS
LA CROSSE      FOG       37  35  92 CALM      29.80R VSB 1/2
SPARTA         FOG       34  34 100 W3        29.79R VSB 1
VIROQUA        CLOUDY    34  34 100 W5        29.77R VSB 1/4 WCI  30
BOSCOBEL       CLOUDY    38  35  89 W3        29.79R
PRAIRIE DU CHI CLOUDY    35  34  96 W3        29.81R FOG
PLATTEVILLE    CLOUDY    36  36 100 NW8       29.77S VSB 1   WCI  29
$$

WIZ056-057-062-063-064-067-068-231000-
SOUTH CENTRAL WISCONSIN

CITY           SKY/WX    TMP DP  RH WIND       PRES   REMARKS
REEDSBURG      CLOUDY    35  35 100 NW3       29.75S
BARABOO/DELLS  CLOUDY    34  34  99 W5        29.75S FOG     WCI  30
LONE ROCK      NOT AVBL
MINERAL POINT  FOG       36  36 100 NW6       29.75S VSB 1   WCI  31
MADISON        CLOUDY    35  34  96 NW6       29.75S WCI  30
MIDDLETON      CLOUDY    37  37 100 NW7       29.75S WCI  31
WATERTOWN      CLOUDY    35  35 100 NW5       29.72F FOG     WCI  31
MONROE         CLOUDY    36  36 100 NW6       29.74S FOG     WCI  31
JANESVILLE     FOG       36  36 100 NW3       29.73S VSB 1
$$

WIZ051-052-058>065-066-070>072-231000-
SOUTHEAST WISCONSIN

CITY           SKY/WX    TMP DP  RH WIND       PRES   REMARKS
MILWAUKEE      CLOUDY    39  35  86 NW10      29.71S WCI  32
WAUKESHA       CLOUDY    34  34 100 NW5       29.73S FOG     WCI  30
MILWAUKEE/TIMM CLOUDY    36  34  93 CALM      29.73S FOG
RACINE         CLOUDY    38  35  89 NW6       29.73S WCI  33
KENOSHA        CLOUDY    37  35  92 NW7       29.71S FOG     WCI  32
FOND DU LAC    LGT SNOW  36  33  89 NW8       29.72F VSB 1   WCI  30
SHEBOYGAN      CLOUDY    37  35  92 NW6       29.71F FOG     WCI  32
WEST BEND      CLOUDY    36  36 100 NW5       29.71S FOG     WCI  32
JUNEAU         CLOUDY    34  34  99 NW5       29.74S FOG     WCI  30
$$

LSZ147-162-231000-
LAKE SUPERIOR

STATION/POSITION TIME  TEMP    WIND        PRES    WAVE
                       AIR SEA DIR/SP/G            HT/PER
                 (UTC) (F)     (DEG/KT/KT) (MB)    (FT/S)
DEVILS ISLAND    0800   35     210/  5/  6 1007.9R
PORT WING        0830   35     200/  3/  4 1008.1R
SAXON HARBOR     0840   35     200/  3/  5 1007.8R
$$

LMZ867-665-643>646-231000-
LAKE MICHIGAN

STATION/POSITION TIME  TEMP    WIND        PRES    WAVE
                       AIR SEA DIR/SP/G            HT/PER
                 (UTC) (F)     (DEG/KT/KT) (MB)    (FT/S)
NORTHPORT PIER   0840   35     300/  3/  4 1006.4F
SISTER BAY       0805   33        CALM       N/A
KEWAUNEE LAKESHO 0830   35     300/  2/  4 1006.1R
SHEBOYGAN LAKESH 0800   37      10/  4/  5 1006.6R
PORT WASHINGTON  0840   38     310/  2/  3 1007.5S
KENOSHA   LAKESH 0800   37     320/  3/  6 1006.4
$$

TC  - TEMPERATURE IN CELSIUS
VSB - VISIBILITY IN STATUTE MILES
WCI - WIND CHILL INDEX
HX  - HEAT INDEX





USA.gov is the U.S. government's official web portal to all federal, state and local government web resources and services.